EW0158 Weather Reports


Display with metric or nautical units.
time (UTC)temp
F
wind
direction
speed
MPH
gust
MPH
rain 1hr
in
rain 24hr
in
rain mn
in
humidity
%
barometer
mb
20260831094016 72 180 7.0 15.0 0.00 0.00 0.00 86 1017.9
20260831093016 72 180 7.0 13.0 0.00 0.00 0.00 85 1018.1
20260831092016 72 180 7.0 11.0 0.00 0.00 0.00 84 1017.9
20260831090015 73 180 7.0 13.0 0.00 0.00 0.00 82 1018.2
20260831085016 73 180 7.0 14.0 0.00 0.00 0.00 82 1018.3
20260831084016 73 180 6.0 11.0 0.00 0.00 0.00 81 1018.3
20260831083116 74 180 5.0 12.0 0.00 0.00 0.00 81 1018.3
20260831082016 74 180 6.0 12.0 0.00 0.00 0.00 80 1018.4
20260831081101 74 157 5.0 9.0 0.00 0.00 0.00 79 1018.3
20260831080015 74 180 5.0 9.0 0.00 0.00 0.00 79 1018.3
20260831075015 75 180 5.0 10.0 0.00 0.00 0.00 78 1018.5
20260831074015 75 180 5.0 11.0 0.00 0.00 0.00 78 1018.6
20260831073016 75 180 5.0 10.0 0.00 0.00 0.00 77 1018.5
20260831072015 75 180 6.0 15.0 0.00 0.00 0.00 76 1018.5
20260831071015 75 180 5.0 10.0 0.00 0.00 0.00 76 1018.7
20260831070015 76 157 5.0 10.0 0.00 0.00 0.00 75 1018.6
20260831065016 76 135 5.0 11.0 0.00 0.00 0.00 74 1018.7
20260831064116 76 157 4.0 7.0 0.00 0.00 0.00 73 1018.6
20260831063015 76 180 5.0 12.0 0.00 0.00 0.00 73 1018.6
20260831062116 77 180 5.0 9.0 0.00 0.00 0.00 72 1018.5
20260831061015 77 157 4.0 9.0 0.00 0.00 0.00 71 1018.5
20260831060016 77 180 5.0 10.0 0.00 0.00 0.00 70 1018.4
20260831055016 77 180 5.0 9.0 0.00 0.00 0.00 69 1018.3
20260831054016 77 180 6.0 12.0 0.00 0.00 0.00 69 1018.2
20260831053016 77 180 4.0 9.0 0.00 0.00 0.00 68 1017.9
20260831052116 78 180 4.0 7.0 0.00 0.00 0.00 66 1017.9
20260831051016 78 180 5.0 9.0 0.00 0.00 0.00 65 1017.8
20260831050016 79 157 5.0 11.0 0.00 0.00 0.00 64 1017.9
20260831045015 79 180 5.0 9.0 0.00 0.00 0.00 63 1017.7
20260831044015 79 180 3.0 7.0 0.00 0.00 0.00 61 1017.7
20260831043015 79 157 4.0 6.0 0.00 0.00 0.00 61 1017.7
20260831042015 79 157 4.0 10.0 0.00 0.00 0.00 61 1017.6
20260831041016 78 157 4.0 9.0 0.00 0.00 0.00 61 1017.6
20260831040015 78 135 3.0 9.0 0.00 0.00 0.00 61 1017.3
20260831034015 78 157 1.0 3.0 0.00 0.00 0.00 61 1016.8
20260831033015 78 157 1.0 2.0 0.00 0.00 0.00 61 1016.9
20260831032015 79 157 1.0 3.0 0.00 0.00 0.00 60 1017.0
20260831031015 79 157 2.0 3.0 0.00 0.00 0.00 59 1016.9
20260831030016 79 157 2.0 5.0 0.00 0.00 0.00 59 1016.9
20260831025015 79 180 2.0 4.0 0.00 0.00 0.00 58 1016.6
20260831024016 79 157 2.0 4.0 0.00 0.00 0.00 58 1016.6
20260831022116 80 135 2.0 3.0 0.00 0.00 0.00 57 1016.1
20260831021015 80 135 1.0 2.0 0.00 0.00 0.00 55 1015.9
20260831020015 81 135 2.0 3.0 0.00 0.00 0.00 54 1015.7
20260831015017 82 157 2.0 4.0 0.00 0.00 0.00 53 1015.6
20260831014015 82 157 3.0 4.0 0.00 0.00 0.00 52 1015.6
20260831013017 83 157 2.0 4.0 0.00 0.00 0.00 51 1015.5
20260831012015 83 135 2.0 4.0 0.00 0.00 0.00 51 1015.6
20260831011017 84 157 2.0 4.0 0.00 0.00 0.00 50 1015.7
20260831010021 85 157 3.0 4.0 0.00 0.00 0.00 48 1015.6
20260831005017 86 180 3.0 5.0 0.00 0.00 0.00 47 1015.7
20260831004015 87 157 4.0 9.0 0.00 0.00 0.00 46 1015.6
20260831003016 87 180 6.0 10.0 0.00 0.00 0.00 46 1015.6
20260831002015 88 157 4.0 9.0 0.00 0.00 0.00 45 1015.4
20260831001016 89 157 5.0 14.0 0.00 0.00 0.00 44 1015.4
20260831000017 89 180 5.0 10.0 0.00 0.00 0.00 44 1015.4
20260830235017 90 157 6.0 11.0 0.00 0.00 0.00 42 1015.5
20260830234015 90 180 6.0 12.0 0.00 0.00 0.00 42 1015.5
20260830233015 91 157 6.0 11.0 0.00 0.00 0.00 42 1015.3
20260830232016 92 157 7.0 13.0 0.00 0.00 0.00 41 1015.6
20260830231016 92 135 7.0 15.0 0.00 0.00 0.00 42 1015.6
20260830230015 92 135 5.0 13.0 0.00 0.00 0.00 40 1015.6
20260830225018 92 135 4.0 7.0 0.00 0.00 0.00 40 1015.8
20260830224016 94 157 7.0 12.0 0.00 0.00 0.00 38 1015.8
20260830223016 93 90 6.0 12.0 0.00 0.00 0.00 39 1015.8
20260830222016 91 157 3.0 6.0 0.00 0.00 0.00 40 1015.6
20260830221017 91 157 4.0 10.0 0.00 0.00 0.00 38 1015.7
20260830220016 93 180 5.0 9.0 0.00 0.00 0.00 39 1015.7
20260830215017 93 202 7.0 11.0 0.00 0.00 0.00 38 1015.9
20260830214016 91 112 6.0 12.0 0.00 0.00 0.00 40 1015.9
20260830213016 93 135 6.0 15.0 0.00 0.00 0.00 39 1016.2
20260830212016 93 90 6.0 12.0 0.00 0.00 0.00 42 1016.3
20260830211016 91 180 5.0 11.0 0.00 0.00 0.00 43 1016.2
20260830210016 93 157 6.0 13.0 0.00 0.00 0.00 42 1016.6
20260830205016 92 135 6.0 11.0 0.00 0.00 0.00 43 1016.9
20260830204016 93 180 10.0 18.0 0.00 0.00 0.00 42 1017.0
20260830203016 94 180 8.0 13.0 0.00 0.00 0.00 39 1017.2
20260830201201 95 135 7.0 13.0 0.00 0.00 0.00 38 1017.5
20260830200016 94 202 7.0 14.0 0.00 0.00 0.00 40 1017.5
20260830195018 92 157 4.0 9.0 0.00 0.00 0.00 38 1017.5
20260830194016 93 135 6.0 10.0 0.00 0.00 0.00 36 1017.9
20260830193118 93 90 7.0 11.0 0.00 0.00 0.00 39 1017.8
20260830192017 92 180 4.0 13.0 0.00 0.00 0.00 42 1018.2
20260830191016 93 180 5.0 11.0 0.00 0.00 0.00 41 1018.0
20260830190116 91 135 6.0 14.0 0.00 0.00 0.00 43 1018.0
20260830185016 93 157 4.0 7.0 0.00 0.00 0.00 41 1018.4
20260830184016 92 180 6.0 13.0 0.00 0.00 0.00 42 1018.6
20260830183016 92 112 5.0 10.0 0.00 0.00 0.00 40 1018.6
20260830182016 92 135 5.0 12.0 0.00 0.00 0.00 41 1018.8
20260830181016 89 180 4.0 13.0 0.00 0.00 0.00 44 1019.0
20260830180016 90 180 6.0 12.0 0.00 0.00 0.00 40 1019.3
20260830175016 91 135 5.0 10.0 0.00 0.00 0.00 43 1019.7
20260830174016 90 157 5.0 10.0 0.00 0.00 0.00 44 1019.8
20260830173018 89 202 6.0 12.0 0.00 0.00 0.00 46 1019.6
20260830172016 88 202 8.0 15.0 0.00 0.00 0.00 48 1019.8
20260830171018 88 180 7.0 14.0 0.00 0.00 0.00 49 1019.8
20260830170016 88 180 7.0 12.0 0.00 0.00 0.00 48 1019.9
20260830165016 88 180 6.0 11.0 0.00 0.00 0.00 50 1019.9
20260830163017 86 180 6.0 11.0 0.00 0.00 0.00 54 1019.9
20260830162016 85 202 7.0 12.0 0.00 0.00 0.00 54 1020.0
20260830161016 85 180 8.0 14.0 0.00 0.00 0.00 55 1019.9
20260830160016 84 202 9.0 16.0 0.00 0.00 0.00 56 1019.8
20260830155016 83 180 8.0 13.0 0.00 0.00 0.00 59 1019.5
20260830154019 82 202 10.0 16.0 0.00 0.00 0.00 61 1019.3
20260830153016 82 202 9.0 13.0 0.00 0.00 0.00 62 1019.4
20260830152016 82 180 6.0 12.0 0.00 0.00 0.00 66 1019.4
20260830151016 81 202 8.0 13.0 0.00 0.00 0.00 66 1019.2
20260830150016 80 202 9.0 14.0 0.00 0.00 0.00 68 1019.2
20260830145016 79 202 10.0 18.0 0.00 0.00 0.00 69 1019.3
20260830144016 78 202 10.0 17.0 0.00 0.00 0.00 72 1019.1
20260830143016 78 202 8.0 15.0 0.00 0.00 0.00 74 1018.9
20260830142016 77 202 11.0 15.0 0.00 0.00 0.00 75 1018.9
20260830141016 76 202 9.0 14.0 0.00 0.00 0.00 83 1019.1
20260830140016 75 180 6.0 13.0 0.00 0.00 0.00 83 1018.9
20260830134016 73 202 5.0 10.0 0.00 0.00 0.00 87 1018.8
20260830133016 72 180 6.0 11.0 0.00 0.00 0.00 88 1018.6
20260830131016 71 202 8.0 14.0 0.00 0.00 0.00 88 1018.4
20260830124016 70 180 6.0 11.0 0.00 0.00 0.00 89 1018.5
20260830123016 70 180 5.0 10.0 0.00 0.00 0.00 90 1018.5
20260830122118 69 180 5.0 9.0 0.00 0.00 0.00 90 1018.5
20260830121117 69 180 4.0 8.0 0.00 0.00 0.00 89 1018.4
20260830120016 69 180 4.0 7.0 0.00 0.00 0.00 89 1018.3
20260830115016 69 180 4.0 7.0 0.00 0.00 0.00 88 1018.3
20260830114016 69 180 4.0 7.0 0.00 0.00 0.00 88 1018.2
20260830113016 69 180 4.0 8.0 0.00 0.00 0.00 88 1018.1
20260830112016 70 180 5.0 6.0 0.00 0.00 0.00 87 1018.2
20260830111016 70 180 6.0 10.0 0.00 0.00 0.00 87 1018.2
20260830110016 70 180 5.0 10.0 0.00 0.00 0.00 86 1018.2
20260830105016 70 180 6.0 12.0 0.00 0.00 0.00 86 1018.4
20260830104016 70 180 6.0 11.0 0.00 0.00 0.00 86 1018.4
20260830103016 70 180 6.0 10.0 0.00 0.00 0.00 85 1018.4
20260830101016 71 180 6.0 11.0 0.00 0.00 0.00 84 1018.4
20260830100016 71 180 5.0 9.0 0.00 0.00 0.00 84 1018.4
20260830095016 71 180 6.0 11.0 0.00 0.00 0.00 83 1018.6